Tucson Davis Monthan, AZ

9:46 AM MST on June 24, 2018 (GMT -0700)
Davis-Monthan Air Force Base

Weather History for KDMA - October, 2017

Change the Weather History Date:

Wednesday, October 18, 2017

  Actual Average Record
Temperature  
Mean Temperature 82 °F -  
Max Temperature 95 °F 84 °F 96 °F (1991)
Min Temperature 68 °F 55 °F 41 °F (1965)
Cooling Degree Days 16    
Growing Degree Days 32 (Base 50)    
Moisture  
Dew Point 36 °F    
Average Humidity 22    
Maximum Humidity 35    
Minimum Humidity 12    
Precipitation  
Precipitation 0.00 in - - ()
Sea Level Pressure  
Sea Level Pressure 29.85 in    
Wind  
Wind Speed 3 mph (ESE)    
Max Wind Speed 6 mph    
Max Gust Speed -    
Visibility 10 miles    
Events      
Averages and records for this station are not official NWS values.
T = Trace of Precipitation, MM = Missing Value Source: NWS Daily Summary

Daily Weather History Graph

Daily Weather History Graph

Search for Another Location

Airport or City:

Astronomy

Oct. 18, 2017 Rise Set
Actual Time 6:29 AM MST 5:47 PM MST
Civil Twilight 6:04 AM MST 6:11 PM MST
Nautical Twilight 5:36 AM MST 6:40 PM MST
Astronomical Twilight 5:07 AM MST 7:08 PM MST
Moon 5:19 AM MST (10/18) 5:33 PM MST (10/18)
Length of Visible Light 12h 07m
Length of Day
11h 17m
Waning Crescent, 1% of the Moon is Illuminated
Oct 18
Waning Crescent
Oct 19
New
Oct 27
First Quarter
Nov 3
Full
Nov 10
Last Quarter

Hourly Weather History & Observations

Time (MST) Temp. Dew Point Humidity Pressure Visibility Wind Dir Wind Speed Gust Speed Precip Events Conditions
12:55 AM 75.2 °F 37.4 °F 25% 29.86 in 10.0 mi Variable 2.3 mph - N/A   Scattered Clouds
1:55 AM 75.2 °F 37.4 °F 25% 29.86 in 10.0 mi Variable 2.3 mph - N/A   Scattered Clouds
2:55 AM 71.6 °F 39.2 °F 31% 29.85 in 10.0 mi East 2.3 mph - N/A   Scattered Clouds
3:58 AM 71.6 °F 39.2 °F 31% 29.85 in 10.0 mi East 2.3 mph - N/A   Scattered Clouds
4:56 AM 69.8 °F 39.2 °F 33% 29.87 in 10.0 mi East 2.3 mph - N/A   Scattered Clouds
5:58 AM 68.0 °F 39.2 °F 35% 29.89 in 10.0 mi East 1.2 mph - N/A   Scattered Clouds
6:55 AM 68.0 °F 39.2 °F 35% 29.90 in 10.0 mi ESE 3.5 mph - N/A   Scattered Clouds
7:55 AM 69.8 °F 39.2 °F 33% 29.92 in 10.0 mi ESE 3.5 mph - N/A   Scattered Clouds
8:59 AM 82.4 °F 39.2 °F 21% 29.91 in 10.0 mi Variable 2.3 mph - N/A   Scattered Clouds
9:59 AM 87.8 °F 37.4 °F 17% 29.90 in 10.0 mi SSW 1.2 mph - N/A   Mostly Cloudy
10:59 AM 89.6 °F 35.6 °F 15% 29.89 in 10.0 mi West 1.2 mph - N/A   Mostly Cloudy
11:59 AM 91.4 °F 35.6 °F 14% 29.86 in 10.0 mi WNW 3.5 mph - N/A   Scattered Clouds
12:59 PM 93.2 °F 35.6 °F 13% 29.83 in 10.0 mi Variable 5.8 mph - N/A   Scattered Clouds
1:59 PM 95.0 °F 35.6 °F 12% 29.81 in 10.0 mi Variable 2.3 mph - N/A   Partly Cloudy
2:59 PM 95.0 °F 35.6 °F 12% 29.80 in 10.0 mi Variable 4.6 mph - N/A   Partly Cloudy
3:59 PM 91.4 °F 35.6 °F 14% 29.80 in 10.0 mi Variable 2.3 mph - N/A   Partly Cloudy
4:59 PM 89.6 °F 33.8 °F 14% 29.75 in 10.0 mi Variable 2.3 mph - N/A   Scattered Clouds
5:59 PM 87.8 °F 33.8 °F 15% 29.77 in 10.0 mi Variable 2.3 mph - N/A   Scattered Clouds
6:59 PM 84.2 °F 33.8 °F 16% 29.78 in 10.0 mi Variable 2.3 mph - N/A   Mostly Cloudy
7:59 PM 82.4 °F 33.8 °F 17% 29.80 in 10.0 mi Variable 2.3 mph - N/A   Mostly Cloudy
8:59 PM 78.8 °F 33.8 °F 20% 29.82 in 10.0 mi Variable 2.3 mph - N/A   Partly Cloudy
9:59 PM 73.4 °F 33.8 °F 23% 29.86 in 10.0 mi Variable 2.3 mph - N/A   Partly Cloudy
10:59 PM 71.6 °F 33.8 °F 25% 29.86 in 10.0 mi Variable 2.3 mph - N/A   Partly Cloudy
11:59 PM 73.4 °F 33.8 °F 23% 29.85 in 10.0 mi Variable 3.5 mph - N/A   Scattered Clouds